Weather History for Big Piney, WY

Change the Weather History Date:

Monday, March 4, 2013

  Actual Average Record
Temperature  
Mean Temperature 20 °F 22 °F  
Max Temperature 28 °F 36 °F 55 °F (1994)
Min Temperature 11 °F 8 °F -23 °F (1993)
Degree Days  
Heating Degree Days 45 43  
Month to date heating degree days 152 176  
Since 1 July heating degree days 7016 7699  
Cooling Degree Days 0 0  
Month to date cooling degree days 0 0  
Year to date cooling degree days 0 0  
Moisture  
Dew Point 7 °F    
Average Humidity 55    
Maximum Humidity 76    
Minimum Humidity 34    
Precipitation  
Precipitation 0.00 in 0.01 in 0.07 in (1985)
Month to date precipitation 0.00 0.04  
Year to date precipitation 0.16 0.70  
Sea Level Pressure  
Sea Level Pressure 30.06 in    
Wind  
Wind Speed 11 mph (North)    
Max Wind Speed 18 mph    
Max Gust Speed 30 mph    
Visibility 10 miles    
Events      
T = Trace of Precipitation, MM = Missing Value Source: NWS Daily Summary

Daily Weather History Graph

Daily Weather History Graph

Search for Another Location

Airport:

Trip Planner

Search our weather history database for the weather conditions in past years. The results will help you decide how hot, cold, wet, or windy it might be!

Date:

Astronomy

Mar. 04, 2013 Rise Set
Actual Time 6:50 AM MST 6:14 PM MST
Civil Twilight 6:22 AM MST 6:42 PM MST
Nautical Twilight 5:49 AM MST 7:15 PM MST
Astronomical Twilight 5:17 AM MST 7:47 PM MST
Moon 1:09 AM MST (3/4) 10:53 AM MST (3/4)
Length of Visible Light 12h 20m
Length of Day
11h 23m
Waning Gibbous, 51% of the Moon is Illuminated
Mar 4
Waning Gibbous
Mar 4
Last Quarter
Mar 11
New
Mar 19
First Quarter
Mar 27
Full

Hourly Weather History & Observations

Time (MST) Temp. Windchill Dew Point Humidity Pressure Visibility Wind Dir Wind Speed Gust Speed Precip Events Conditions
12:53 AM 25.0 °F 13.6 °F 14.0 °F 63% 29.78 in 10.0 mi North 12.7 mph - N/A   Mostly Cloudy
1:53 AM 21.9 °F 9.8 °F 12.9 °F 68% 29.80 in 10.0 mi NNE 12.7 mph - N/A   Clear
2:53 AM 21.0 °F 7.6 °F 9.0 °F 60% 29.81 in 10.0 mi North 15.0 mph - N/A   Clear
3:53 AM 21.0 °F 7.6 °F 6.1 °F 53% 29.84 in 10.0 mi NNW 15.0 mph - N/A   Clear
4:53 AM 19.4 °F 7.9 °F 6.8 °F 58% 29.86 in 10.0 mi NNW 10.4 mph - N/A   Partly Cloudy
5:53 AM 18.0 °F 11.1 °F 10.0 °F 71% 29.91 in 10.0 mi North 4.6 mph - N/A   Mostly Cloudy
6:53 AM 18.0 °F 5.4 °F 8.1 °F 65% 29.95 in 10.0 mi North 11.5 mph - N/A   Mostly Cloudy
7:53 AM 18.0 °F 7.7 °F 7.0 °F 62% 29.99 in 10.0 mi NNW 8.1 mph - N/A   Partly Cloudy
8:53 AM 21.9 °F 7.3 °F 6.1 °F 51% 30.00 in 10.0 mi NNW 18.4 mph - N/A   Clear
9:53 AM 23.0 °F 10.6 °F 6.1 °F 48% 30.03 in 10.0 mi North 13.8 mph - N/A   Clear
10:53 AM 24.1 °F 13.1 °F 7.0 °F 48% 30.06 in 10.0 mi NNW 11.5 mph - N/A   Scattered Clouds
11:53 AM 26.1 °F 13.1 °F 5.0 °F 41% 30.06 in 10.0 mi NNW 17.3 mph 27.6 mph N/A   Clear
12:53 PM 27.0 °F 15.6 °F 5.0 °F 39% 30.08 in 10.0 mi NNW 13.8 mph 20.7 mph N/A   Partly Cloudy
1:53 PM 28.0 °F 16.1 °F 3.9 °F 36% 30.10 in 10.0 mi NNW 16.1 mph 24.2 mph N/A   Clear
2:53 PM 28.0 °F 17.0 °F 6.1 °F 39% 30.12 in 10.0 mi North 13.8 mph - N/A   Partly Cloudy
3:53 PM 28.0 °F 16.1 °F 5.0 °F 38% 30.15 in 10.0 mi NNW 16.1 mph 21.9 mph N/A   Clear
4:53 PM 27.0 °F 16.7 °F 3.9 °F 37% 30.16 in 10.0 mi North 11.5 mph - N/A   Clear
5:53 PM 24.1 °F 13.7 °F 5.0 °F 44% 30.21 in 10.0 mi North 10.4 mph - N/A   Clear
6:53 PM 19.9 °F 10.1 °F 9.0 °F 62% 30.26 in 10.0 mi North 8.1 mph - N/A   Clear
7:53 PM 17.1 °F 10.0 °F 9.0 °F 71% 30.28 in 10.0 mi NNW 4.6 mph - N/A   Clear
8:53 PM 14.0 °F 2.9 °F 7.0 °F 74% 30.30 in 10.0 mi North 8.1 mph - N/A   Clear
9:53 PM 12.9 °F 5.2 °F 6.1 °F 74% 30.32 in 10.0 mi ENE 4.6 mph - N/A   Clear
10:53 PM 10.9 °F 1.4 °F 5.0 °F 77% 30.32 in 10.0 mi ENE 5.8 mph - N/A   Clear